sat.trackr.live / text

‹ back to catalog

STARLINK-30418

NORAD 57829 · 2023-138X

PAYLOAD ACTIVE UNKNOWN

§ Identity

Operator
Country
US
Launch date
2023-09-09
Launch site
AFETR
Launch vehicle
Mass (kg)
RCS (m²)

Purposes: comms

External: N2YO · Heavens-Above · Gunter

§ Orbital elements

Epoch: 2026-09-20T05:37:38.494848Z

Period
94.27 min
Inclination
43.0004°
Eccentricity
0.0001209
Mean motion
15.27576219 rev/d
Perigee alt
482.2 km
Apogee alt
483.9 km
Semi-major
6,861.2 km
B*
1.3643e-5
RAAN
215.3002°
Arg perigee
264.9863°
Mean anomaly
95.0851°
Rev number
16,832

§ Raw data

STARLINK-304181 57829U 23138X   26263.23447332  .00000113  00000+0  13643-4 0  99902 57829  43.0004 215.3002 0001209 264.9863  95.0851 15.27576219168320

JSON: /api/v1/satellites/57829 · /tle

For live sub-satellite position, see the globe view (requires WebGL).

§ Visibility from observer

Set your observer location to see the next 7 days of passes ≥ 10°. The values pass through the URL so the page stays shareable.

No JS? Fill the form by hand. The geolocation button needs JavaScript.